OH5GWF-1 Weather Reports


Display with metric or nautical units.
time (UTC)temp
F
wind
direction
speed
MPH
gust
MPH
rain 1hr
in
rain 24hr
in
rain mn
in
humidity
%
barometer
mb
20260901155055 64 248 0.0 0.0 0.00 0.00 0.00 82 1007.3
20260901154353 65 248 0.0 0.0 0.00 0.00 0.00 82 1007.4
20260901153651 66 248 0.0 2.0 0.00 0.00 0.00 81 1007.4
20260901152948 66 248 0.0 0.0 0.00 0.00 0.00 81 1007.5
20260901152258 66 248 0.0 0.0 0.00 0.00 0.00 81 1007.5
20260901151555 66 248 1.0 2.0 0.00 0.00 0.00 81 1007.6
20260901150852 66 248 0.0 0.0 0.00 0.00 0.00 81 1007.4
20260901150151 66 248 0.0 0.0 0.00 0.00 0.00 81 1007.5
20260901145448 66 248 0.0 0.0 0.00 0.00 0.00 81 1007.4
20260901144746 67 248 0.0 0.0 0.00 0.00 0.00 80 1007.5
20260901144056 67 248 0.0 0.0 0.00 0.00 0.00 80 1007.5
20260901143352 67 248 0.0 0.0 0.00 0.00 0.00 79 1007.5
20260901142650 68 248 1.0 1.0 0.00 0.00 0.00 79 1007.4
20260901141947 67 248 1.0 3.0 0.00 0.00 0.00 80 1007.5
20260901141256 67 248 1.0 2.0 0.00 0.00 0.00 81 1007.6
20260901140554 66 248 0.0 1.0 0.00 0.00 0.00 81 1007.6
20260901135850 67 248 0.0 1.0 0.00 0.00 0.00 80 1007.5
20260901135148 67 248 1.0 3.0 0.00 0.00 0.00 80 1007.7
20260901134457 67 248 0.0 2.0 0.00 0.00 0.00 80 1007.7
20260901133755 67 248 0.0 2.0 0.00 0.00 0.00 80 1007.8
20260901133054 68 248 0.0 0.0 0.00 0.00 0.00 79 1007.7
20260901132352 69 248 0.0 0.0 0.00 0.00 0.00 77 1007.8
20260901131649 71 248 0.0 0.0 0.00 0.00 0.00 77 1007.7
20260901130947 70 248 0.0 1.0 0.00 0.00 0.00 79 1007.8
20260901130257 69 248 2.0 5.0 0.00 0.00 0.00 80 1007.9
20260901125555 67 248 0.0 0.0 0.00 0.00 0.00 80 1007.9
20260901124852 67 248 0.0 1.0 0.00 0.00 0.00 81 1008.0
20260901124150 66 248 0.0 1.0 0.00 0.00 0.00 81 1008.0
20260901123449 66 248 0.0 0.0 0.00 0.00 0.00 82 1008.1
20260901122748 66 248 0.0 1.0 0.00 0.00 0.00 81 1008.0
20260901122047 65 248 0.0 0.0 0.00 0.00 0.00 81 1008.1
20260901121356 66 248 1.0 2.0 0.00 0.06 0.00 81 1008.1
20260901120654 66 248 0.0 1.0 0.00 0.06 0.00 80 1008.1
20260901115951 67 248 1.0 3.0 0.00 0.08 0.00 80 1008.0
20260901115616 67 248 0.0 1.0 0.00 0.10 0.00 80 1008.0
20260901115248 67 248 1.0 1.0 0.00 0.10 0.00 80 1007.9
20260901114557 67 248 0.0 0.0 0.00 0.12 0.00 80 1008.0
20260901114522 67 248 1.0 1.0 0.00 0.12 0.00 80 1008.0
20260901113855 67 248 2.0 3.0 0.00 0.12 0.00 80 1008.0
20260901113419 66 248 1.0 5.0 0.00 0.12 0.00 80 1008.0
20260901113153 66 248 0.0 2.0 0.00 0.12 0.00 80 1007.9
20260901112523 70 248 0.0 0.0 0.00 0.14 0.00 77 1007.9
20260901112451 69 248 0.0 0.0 0.00 0.14 0.00 78 1007.9
20260901111748 70 248 0.0 0.0 0.00 0.14 0.00 77 1007.9
20260901111223 70 248 0.0 1.0 0.00 0.14 0.00 77 1007.9
20260901111046 71 248 0.0 1.0 0.00 0.14 0.00 76 1007.9
20260901110355 72 248 1.0 1.0 0.00 0.14 0.00 73 1007.7
20260901110120 72 248 1.0 1.0 0.00 0.14 0.00 73 1007.7
20260901105653 72 248 2.0 2.0 0.00 0.14 0.00 73 1007.8
20260901104951 72 248 0.0 1.0 0.00 0.14 0.00 76 1007.8
20260901104247 71 248 0.0 2.0 0.00 0.14 0.00 75 1007.9
20260901103924 71 248 2.0 3.0 0.00 0.14 0.00 74 1007.9
20260901103546 72 248 1.0 2.0 0.00 0.14 0.00 74 1007.9
20260901102855 72 248 1.0 1.0 0.00 0.14 0.00 76 1008.0
20260901102821 72 253 1.0 3.0 0.00 0.14 0.00 76 1008.0
20260901102152 71 248 1.0 2.0 0.00 0.14 0.00 77 1007.9
20260901101717 70 248 1.0 2.0 0.00 0.14 0.00 77 1007.9
20260901101451 70 248 1.0 5.0 0.00 0.14 0.00 78 1008.0
20260901100750 69 248 1.0 3.0 0.00 0.16 0.00 79 1007.9
20260901100627 69 248 1.0 2.0 0.00 0.16 0.00 78 1007.9
20260901100048 69 248 1.0 1.0 0.00 0.16 0.00 79 1007.9
20260901095523 69 248 1.0 3.0 0.00 0.16 0.00 80 1007.9
20260901095357 69 248 0.0 3.0 0.00 0.16 0.00 80 1007.9
20260901094654 69 248 1.0 1.0 0.00 0.16 0.00 80 1007.7
20260901094419 69 248 0.0 1.0 0.00 0.18 0.00 80 1007.7
20260901093952 68 248 0.0 2.0 0.00 0.18 0.00 80 1007.7
20260901093326 67 248 0.0 1.0 0.00 0.18 0.00 81 1007.8
20260901093249 67 248 0.0 1.0 0.00 0.18 0.00 81 1007.8
20260901092546 68 248 0.0 0.0 0.00 0.18 0.00 80 1007.7
20260901092223 68 248 0.0 0.0 0.00 0.20 0.00 80 1007.7
20260901091858 69 248 0.0 0.0 0.00 0.20 0.00 80 1007.6
20260901091208 70 248 0.0 1.0 0.00 0.20 0.00 78 1007.5
20260901091122 70 248 0.0 1.0 0.00 0.20 0.00 79 1007.6
20260901090454 70 248 0.0 0.0 0.00 0.20 0.00 78 1007.7
20260901090018 70 248 1.0 2.0 0.00 0.20 0.00 79 1007.6
20260901085751 70 248 0.0 2.0 0.00 0.22 0.00 79 1007.6
20260901085049 70 249 0.0 0.0 0.00 0.22 0.00 79 1007.5
20260901084926 70 249 0.0 0.0 0.00 0.22 0.00 80 1007.5
20260901084347 70 249 0.0 0.0 0.00 0.22 0.00 81 1007.6
20260901083822 68 249 0.0 0.0 0.00 0.24 0.00 81 1007.6
20260901083657 68 249 0.0 0.0 0.00 0.24 0.00 81 1007.6
20260901082955 67 248 0.0 1.0 0.00 0.24 0.00 81 1007.7
20260901082719 67 248 1.0 6.0 0.00 0.24 0.00 81 1007.8
20260901082252 68 1 3.0 3.0 0.00 0.24 0.00 81 1007.8
20260901081627 68 1 3.0 3.0 0.00 0.24 0.00 81 1007.7
20260901081550 68 1 3.0 3.0 0.00 0.24 0.00 81 1007.7
20260901080847 68 1 3.0 3.0 0.00 0.24 0.00 82 1007.8
20260901080523 68 1 3.0 3.0 0.00 0.26 0.00 82 1007.7
20260901080155 68 1 3.0 3.0 0.00 0.26 0.00 82 1007.8
20260901075454 68 1 3.0 3.0 0.00 0.26 0.00 83 1007.8
20260901075419 68 1 3.0 3.0 0.00 0.26 0.00 82 1007.8
20260901074751 67 1 3.0 3.0 0.00 0.26 0.00 83 1007.7
20260901074316 67 1 3.0 3.0 0.00 0.26 0.00 83 1007.8
20260901074049 67 1 3.0 3.0 0.00 0.26 0.00 83 1007.7
20260901073406 67 1 3.0 3.0 0.00 0.26 0.00 83 1007.7
20260901073347 67 1 3.0 3.0 0.00 0.26 0.00 83 1007.7
20260901072657 66 1 3.0 3.0 0.00 0.26 0.00 84 1007.7
20260901072120 65 1 3.0 3.0 0.00 0.28 0.00 84 1007.6
20260901071955 65 1 3.0 3.0 0.00 0.28 0.00 84 1007.4
20260901071254 64 1 3.0 3.0 0.00 0.28 0.00 84 1007.5
20260901071019 63 1 3.0 3.0 0.00 0.28 0.00 84 1007.5
20260901070552 63 1 3.0 3.0 0.00 0.28 0.00 84 1007.5
20260901065850 63 1 3.0 3.0 0.00 0.30 0.00 84 1007.4
20260901065148 62 1 3.0 3.0 0.00 0.30 0.00 84 1007.6
20260901064825 62 1 3.0 3.0 0.00 0.30 0.00 84 1007.7
20260901064447 62 1 3.0 3.0 0.00 0.30 0.00 84 1007.7
20260901063747 61 1 3.0 3.0 0.00 0.30 0.00 84 1007.6
20260901063723 61 1 3.0 3.0 0.00 0.30 0.00 84 1007.7
20260901063055 61 1 3.0 3.0 0.00 0.30 0.00 84 1007.7
20260901062619 61 1 3.0 3.0 0.00 0.30 0.00 84 1007.6
20260901062353 61 1 3.0 3.0 0.00 0.30 0.00 84 1007.6
20260901061650 60 1 3.0 3.0 0.00 0.30 0.00 84 1007.4
20260901061515 60 1 3.0 3.0 0.00 0.30 0.00 84 1007.5
20260901060950 60 1 3.0 3.0 0.00 0.30 0.00 84 1007.4
20260901060426 60 1 3.0 3.0 0.00 0.30 0.00 84 1007.5
20260901060247 60 1 3.0 3.0 0.00 0.30 0.00 84 1007.4
20260901055556 60 1 3.0 3.0 0.00 0.30 0.00 84 1007.4
20260901055321 59 1 3.0 3.0 0.00 0.30 0.00 84 1007.3
20260901054854 59 1 3.0 3.0 0.00 0.30 0.00 84 1007.3
20260901054154 59 1 3.0 3.0 0.00 0.30 0.00 85 1007.4
20260901053453 58 1 3.0 3.0 0.00 0.30 0.00 85 1007.3
20260901053116 58 1 3.0 3.0 0.00 0.30 0.00 85 1007.4
20260901052750 58 1 3.0 3.0 0.00 0.30 0.00 85 1007.5
20260901052027 58 1 3.0 3.0 0.00 0.30 0.00 85 1007.4
20260901051348 58 1 3.0 3.0 0.00 0.30 0.00 85 1007.4
20260901050924 58 1 3.0 3.0 0.00 0.30 0.00 85 1007.4
20260901050657 58 1 3.0 3.0 0.00 0.30 0.00 85 1007.4
20260901045956 28 1 3.0 3.0 0.00 0.30 0.00 82 1007.5
20260901045821 57 1 3.0 3.0 0.00 0.30 0.00 80 1007.5
20260901045255 9 1 3.0 3.0 0.00 0.30 0.00 85 1007.5
20260901044718 57 1 3.0 3.0 0.00 0.30 0.00 79 1007.5
20260901044552 57 1 3.0 3.0 0.00 0.30 0.00 84 1007.4
20260901043850 57 249 3.0 3.0 0.00 0.30 0.00 85 1007.4
20260901043146 57 249 3.0 3.0 0.00 0.30 0.00 85 1007.5
20260901042456 57 249 3.0 3.0 0.00 0.30 0.00 86 1007.4
20260901041754 57 249 3.0 3.0 0.00 0.30 0.00 86 1007.3
20260901041052 57 249 3.0 3.0 0.00 0.30 0.00 86 1007.3
20260901040350 57 249 3.0 3.0 0.00 0.30 0.00 86 1007.3
20260901035649 57 249 3.0 3.0 0.00 0.30 0.00 86 1007.3
20260901034947 57 249 3.0 3.0 0.00 0.30 0.00 86 1007.3
20260901034257 57 249 3.0 3.0 0.00 0.30 0.00 86 1007.2
20260901033555 57 249 3.0 3.0 0.00 0.30 0.00 86 1007.2
20260901032853 57 249 3.0 3.0 0.00 0.30 0.00 86 1007.2
20260901032151 57 249 3.0 3.0 0.00 0.30 0.00 86 1007.1
20260901031449 57 249 3.0 3.0 0.00 0.30 0.00 86 1007.1
20260901030746 57 249 3.0 3.0 0.00 0.30 0.00 86 1007.1
20260901030057 57 249 3.0 3.0 0.00 0.30 0.00 86 1006.9
20260901025354 57 249 3.0 3.0 0.00 0.30 0.00 86 1007.0
20260901024652 57 249 3.0 3.0 0.00 0.32 0.00 86 1007.0
20260901023950 57 249 3.0 3.0 0.00 0.32 0.00 86 1007.0
20260901023249 57 249 3.0 3.0 0.00 0.32 0.00 86 1006.9
20260901022546 57 249 3.0 3.0 0.00 0.32 0.00 86 1006.8
20260901021909 57 249 3.0 3.0 0.00 0.32 0.00 86 1006.7
20260901021155 58 249 3.0 3.0 0.00 0.32 0.00 86 1006.7
20260901020455 58 249 3.0 3.0 0.00 0.32 0.00 86 1006.7
20260901015754 58 249 3.0 3.0 0.00 0.32 0.00 86 1006.6
20260901015050 58 249 3.0 3.0 0.00 0.32 0.00 86 1006.6
20260901014348 58 249 3.0 3.0 0.00 0.32 0.00 86 1006.5
20260901013657 58 249 3.0 3.0 0.00 0.32 0.00 86 1006.6
20260901012956 58 249 3.0 3.0 0.00 0.32 0.00 86 1006.5
20260901012255 58 249 3.0 3.0 0.00 0.32 0.00 86 1006.6
20260901011554 58 249 3.0 3.0 0.00 0.32 0.00 86 1006.6
20260901010852 58 249 3.0 3.0 0.00 0.32 0.00 86 1006.8
20260901010150 58 249 3.0 3.0 0.00 0.32 0.00 86 1006.7
20260901005447 58 249 3.0 3.0 0.00 0.32 0.00 86 1006.7
20260901004757 58 249 3.0 3.0 0.00 0.32 0.00 86 1006.7
20260901004055 58 249 3.0 3.0 0.00 0.32 0.00 86 1006.8
20260901003352 58 249 3.0 3.0 0.00 0.32 0.00 86 1006.7
20260901002650 58 249 3.0 3.0 0.00 0.32 0.00 86 1006.8
20260901001947 58 249 3.0 3.0 0.00 0.32 0.00 86 1006.7
20260901001256 58 249 3.0 3.0 0.00 0.32 0.00 86 1006.7
20260901000554 58 249 3.0 3.0 0.00 0.32 0.00 86 1006.7
20260831235852 58 249 3.0 3.0 0.00 0.32 0.00 86 1006.6
20260831235150 58 249 3.0 3.0 0.00 0.32 0.00 85 1006.7
20260831234446 58 249 3.0 3.0 0.00 0.32 0.00 85 1006.6
20260831233756 58 249 3.0 3.0 0.00 0.32 0.00 85 1006.6
20260831233054 58 249 3.0 3.0 0.00 0.32 0.00 85 1006.7
20260831232351 58 249 3.0 3.0 0.00 0.32 0.00 85 1006.7
20260831231648 58 249 3.0 3.0 0.00 0.32 0.00 85 1006.6
20260831230957 58 249 3.0 3.0 0.00 0.32 0.00 85 1006.6
20260831230255 58 249 3.0 3.0 0.00 0.32 0.00 85 1006.6
20260831225554 58 249 3.0 3.0 0.00 0.32 0.00 85 1006.5
20260831224852 58 249 3.0 3.0 0.00 0.32 0.00 85 1006.5
20260831224149 58 249 3.0 3.0 0.00 0.32 0.00 85 1006.5
20260831223448 58 249 3.0 3.0 0.00 0.32 0.00 85 1006.5
20260831222747 58 249 3.0 3.0 0.00 0.34 0.00 85 1006.4
20260831222057 58 249 3.0 3.0 0.00 0.34 0.00 85 1006.5
20260831221355 58 249 3.0 3.0 0.00 0.34 0.00 85 1006.5
20260831220653 58 249 3.0 3.0 0.00 0.34 0.00 85 1006.4
20260831215950 58 249 3.0 3.0 0.00 0.34 0.00 85 1006.4
20260831215250 58 249 3.0 3.0 0.00 0.34 0.00 85 1006.4
20260831214548 58 249 3.0 3.0 0.00 0.34 0.00 85 1006.4
20260831213857 58 249 3.0 3.0 0.00 0.34 0.00 85 1006.4
20260831213155 58 249 3.0 3.0 0.00 0.34 0.00 85 1006.4
20260831212505 58 249 3.0 3.0 0.00 0.34 0.00 85 1006.3
20260831211749 58 249 3.0 3.0 0.00 0.34 0.00 85 1006.4
20260831211047 58 249 3.0 3.0 0.00 0.34 0.00 85 1006.3
20260831210356 58 249 3.0 3.0 0.00 0.34 0.00 85 1006.3
20260831205654 58 249 3.0 3.0 0.00 0.34 0.34 85 1006.3
20260831204953 58 249 3.0 3.0 0.00 0.34 0.34 85 1006.3
20260831204252 58 249 3.0 3.0 0.00 0.34 0.34 85 1006.2
20260831203551 59 249 3.0 3.0 0.00 0.34 0.34 85 1006.3
20260831202849 59 249 3.0 3.0 0.00 0.34 0.34 85 1006.1
20260831202146 59 249 3.0 3.0 0.00 0.34 0.34 85 1006.2
20260831201456 59 249 3.0 3.0 0.00 0.34 0.34 85 1006.1
20260831200756 59 249 3.0 3.0 0.00 0.34 0.34 85 1006.0
20260831200054 59 249 3.0 3.0 0.00 0.34 0.34 85 1006.0
20260831195351 59 249 3.0 3.0 0.00 0.34 0.34 85 1005.9
20260831194649 59 249 3.0 3.0 0.00 0.34 0.34 85 1006.0
20260831193948 59 249 3.0 3.0 0.00 0.34 0.34 85 1006.0
20260831193247 59 249 3.0 3.0 0.00 0.34 0.34 85 1006.0
20260831192546 59 249 3.0 3.0 0.00 0.34 0.34 85 1006.0
20260831191856 59 249 3.0 3.0 0.00 0.34 0.34 85 1005.9
20260831191153 59 249 3.0 3.0 0.00 0.34 0.34 85 1005.9
20260831190452 59 249 3.0 3.0 0.00 0.34 0.34 85 1005.9
20260831185750 59 249 3.0 3.0 0.00 0.34 0.34 85 1005.8
20260831185049 59 249 3.0 3.0 0.00 0.34 0.34 85 1005.8
20260831184348 60 249 3.0 3.0 0.00 0.34 0.34 85 1005.8
20260831183657 60 249 3.0 3.0 0.00 0.34 0.34 85 1005.8
20260831182955 60 249 3.0 3.0 0.00 0.34 0.34 85 1005.8
20260831182253 60 249 3.0 3.0 0.00 0.34 0.34 85 1005.8
20260831181551 60 249 3.0 3.0 0.00 0.34 0.34 85 1005.7
20260831180849 60 249 3.0 3.0 0.00 0.34 0.34 85 1005.5
20260831180157 60 249 3.0 3.0 0.00 0.34 0.34 85 1005.5
20260831175456 60 249 3.0 3.0 0.00 0.34 0.34 84 1005.6
20260831174754 60 249 3.0 3.0 0.00 0.34 0.34 84 1005.6
20260831174051 60 249 3.0 3.0 0.00 0.34 0.34 84 1005.6
20260831173349 60 249 3.0 3.0 0.00 0.34 0.34 84 1005.5
20260831172658 60 249 3.0 3.0 0.00 0.34 0.34 84 1005.5
20260831171956 61 249 3.0 3.0 0.00 0.34 0.34 84 1005.5
20260831171252 61 249 3.0 3.0 0.00 0.34 0.34 84 1005.5
20260831170550 61 249 3.0 3.0 0.00 0.34 0.34 84 1005.4
20260831165849 61 249 3.0 3.0 0.00 0.34 0.34 84 1005.4
20260831165148 61 249 3.0 3.0 0.00 0.34 0.34 84 1005.4
20260831164458 61 249 3.0 3.0 0.00 0.34 0.34 84 1005.3
20260831163757 61 249 3.0 3.0 0.00 0.34 0.34 84 1005.2
20260831163054 61 249 3.0 3.0 0.00 0.34 0.34 84 1005.2
20260831162352 62 249 3.0 3.0 0.00 0.34 0.34 84 1005.2
20260831161649 62 249 3.0 3.0 0.00 0.34 0.34 84 1005.1
20260831160947 62 249 3.0 3.0 0.00 0.34 0.34 84 1005.2
20260831160257 62 249 3.0 3.0 0.00 0.34 0.34 84 1005.1
20260831155554 63 249 3.0 3.0 0.00 0.34 0.34 83 1005.0